Zurück zum Katalog

FREGAT R/B

AktivHEO
NORAD 40002·ROCKET BODY·🇷🇺 Russia

Gestartet Jun 14, 2014 von Plesetsk Cosmodrome

Loading…

Nächste Überflüge (nächste 24 Stunden)

TLE

AktuellSource: Space-Track

Epoche: Sep 13, 2026, 09:38 UTC

1 40002U 14032B   26256.40188353 -.00000059  00000-0  00000+0 0  9993
2 40002  65.3787 317.0536 0078309  84.9503 276.0170  2.09160880 93576

Verfolge FREGAT R/B in Echtzeit mit AllMySat

Download on the App Store